Chadron, NE

3:29 PM MDT on August 20, 2017 (GMT -0600)
Chadron Municipal

Weather History for KCDR - October, 2012

Change the Weather History Date:

Wednesday, October 24, 2012

  Actual Average Record
Temperature  
Mean Temperature 37 °F 44 °F  
Max Temperature 46 °F 61 °F 82 °F (1940)
Min Temperature 27 °F 28 °F 15 °F (1975)
Degree Days  
Heating Degree Days 28 21  
Month to date heating degree days 390 387  
Since 1 July heating degree days 507 598  
Cooling Degree Days 0 0  
Month to date cooling degree days 0 0  
Year to date cooling degree days 1167 710  
Moisture  
Dew Point 36 °F    
Average Humidity 88    
Maximum Humidity 100    
Minimum Humidity 76    
Precipitation  
Precipitation 0.20 in 0.04 in 0.50 in (1997)
Month to date precipitation 0.54 1.09  
Year to date precipitation 7.02 16.69  
Sea Level Pressure  
Sea Level Pressure 30.00 in    
Wind  
Wind Speed 7 mph (North)    
Max Wind Speed 21 mph    
Max Gust Speed 26 mph    
Visibility 4 miles    
Events Fog , Rain , Snow    
T = Trace of Precipitation, MM = Missing Value Source: NWS Daily Summary

Daily Weather History Graph

Daily Weather History Graph

Search for Another Location

Airport or City:

Trip Planner

Search our weather history database for the weather conditions in past years. The results will help you decide how hot, cold, wet, or windy it might be!

Date:

Astronomy

Oct. 24, 2012 Rise Set
Actual Time 7:17 AM MDT 5:55 PM MDT
Civil Twilight 6:48 AM MDT 6:24 PM MDT
Nautical Twilight 6:15 AM MDT 6:57 PM MDT
Astronomical Twilight 5:42 AM MDT 7:29 PM MDT
Moon 3:18 PM MDT (10/24) 2:08 AM MDT (10/24)
Length of Visible Light 11h 35m
Length of Day
10h 37m
Waxing Gibbous, 76% of the Moon is Illuminated
Oct 24
Waxing Gibbous
Oct 29
Full
Nov 6
Last Quarter
Nov 13
New
Nov 20
First Quarter

Hourly Weather History & Observations

Time (MDT) Temp. Windchill Dew Point Humidity Pressure Visibility Wind Dir Wind Speed Gust Speed Precip Events Conditions
12:53 AM 45.0 °F - 39.0 °F 80% 29.87 in 10.0 mi Calm Calm - N/A   Mostly Cloudy
1:53 AM 45.0 °F - 39.0 °F 80% 29.89 in 10.0 mi Calm Calm - N/A   Overcast
2:53 AM 45.0 °F - 39.0 °F 80% 29.91 in 10.0 mi Calm Calm - N/A   Overcast
3:12 AM 44.6 °F 41.4 °F 39.2 °F 81% 29.94 in 10.0 mi NNW 5.8 mph - N/A   Overcast
3:53 AM 46.0 °F - 39.9 °F 79% 29.93 in 10.0 mi Calm Calm - N/A   Overcast
4:26 AM 44.6 °F - 39.2 °F 81% 29.94 in 10.0 mi Calm Calm - N/A   Overcast
4:53 AM 45.0 °F 43.5 °F 39.9 °F 82% 29.96 in 10.0 mi North 3.5 mph - N/A   Overcast
5:21 AM 44.6 °F 42.2 °F 39.2 °F 81% 29.94 in 10.0 mi NNE 4.6 mph - 0.00 in Rain Light Rain
5:53 AM 44.1 °F 40.8 °F 39.9 °F 85% 29.97 in 10.0 mi North 5.8 mph - 0.00 in   Overcast
6:38 AM 44.6 °F 42.2 °F 41.0 °F 87% 29.95 in 10.0 mi NNW 4.6 mph - 0.00 in Rain Light Rain
6:53 AM 44.1 °F 40.8 °F 42.1 °F 93% 29.98 in 9.0 mi NW 5.8 mph - 0.00 in Rain Light Rain
7:23 AM 44.6 °F 42.2 °F 42.8 °F 93% 29.95 in 7.0 mi North 4.6 mph - 0.00 in Rain Light Rain
7:53 AM 43.0 °F 40.3 °F 42.1 °F 97% 29.99 in 5.0 mi North 4.6 mph - 0.01 in Rain Light Rain
8:35 AM 42.8 °F - 42.8 °F 100% 29.96 in 5.0 mi Calm Calm - 0.01 in Rain Light Rain
8:43 AM 42.8 °F - 42.8 °F 100% 29.96 in 5.0 mi Calm Calm - 0.01 in Rain Light Rain
8:53 AM 43.0 °F - 42.1 °F 97% 29.99 in 3.0 mi Calm Calm - 0.01 in Rain Light Rain
9:08 AM 42.8 °F 38.6 °F 41.0 °F 93% 29.96 in 2.0 mi WNW 6.9 mph - 0.02 in Rain Light Rain
9:18 AM 42.8 °F 39.3 °F 39.2 °F 87% 29.96 in 3.0 mi NW 5.8 mph - 0.02 in Rain Light Rain
9:24 AM 42.8 °F 40.1 °F 41.0 °F 93% 29.97 in 2.5 mi NW 4.6 mph - 0.03 in Rain Light Rain
9:36 AM 42.8 °F 41.1 °F 41.0 °F 93% 29.96 in 3.0 mi NW 3.5 mph - 0.03 in Rain Light Rain
9:53 AM 43.0 °F 40.3 °F 41.0 °F 93% 30.01 in 5.0 mi NW 4.6 mph - 0.03 in Rain Light Rain
10:53 AM 42.1 °F 37.7 °F 39.9 °F 92% 30.00 in 5.0 mi WNW 6.9 mph - 0.01 in Rain Light Rain
11:21 AM 42.8 °F 37.5 °F 39.2 °F 87% 29.95 in 4.0 mi NW 9.2 mph - 0.01 in Rain Light Rain
11:53 AM 42.1 °F 37.1 °F 39.9 °F 92% 29.99 in 4.0 mi NW 8.1 mph - 0.02 in Rain Light Rain
12:53 PM 42.1 °F 36.6 °F 39.0 °F 89% 29.98 in 3.0 mi WNW 9.2 mph - 0.02 in Rain Light Rain
1:01 PM 42.8 °F 38.0 °F 39.2 °F 87% 29.93 in 3.0 mi NW 8.1 mph - 0.01 in Rain Light Rain
1:08 PM 39.2 °F 31.6 °F 37.4 °F 93% 29.93 in 1.8 mi North 12.7 mph 19.6 mph 0.02 in Rain Rain
1:18 PM 37.4 °F 27.8 °F 37.4 °F 100% 29.94 in 1.5 mi North 17.3 mph 25.3 mph 0.03 in Rain Light Rain
1:53 PM 36.0 °F 26.7 °F 35.1 °F 97% 29.99 in 1.8 mi NNE 15.0 mph - 0.05 in Snow Light Snow
2:11 PM 35.6 °F 25.5 °F 33.8 °F 93% 29.93 in 1.2 mi NNE 17.3 mph - N/A Snow Light Snow
2:37 PM 33.8 °F 23.9 °F 32.0 °F 93% 29.93 in 0.8 mi NNE 15.0 mph 26.5 mph 0.02 in Snow Light Snow
3:17 PM 33.8 °F 24.3 °F 32.0 °F 93% 29.94 in 0.5 mi NNE 13.8 mph - 0.00 in Fog , Snow Light Snow
3:42 PM 33.8 °F 24.3 °F 32.0 °F 93% 29.96 in 0.2 mi NNE 13.8 mph - 0.01 in Fog , Snow Snow
3:53 PM 33.1 °F 22.6 °F 32.0 °F 96% 30.03 in 0.2 mi NNE 16.1 mph - 0.01 in Fog , Snow Snow
4:53 PM 32.0 °F 20.8 °F 30.9 °F 96% 30.06 in 0.2 mi NNE 17.3 mph 24.2 mph 0.00 in Fog , Snow Snow
5:21 PM 32.0 °F 23.6 °F 30.2 °F 93% 30.00 in 0.2 mi NE 10.4 mph - 0.00 in Fog , Snow Snow
5:33 PM 32.0 °F 23.6 °F 30.2 °F 93% 30.01 in 0.2 mi NE 10.4 mph - 0.00 in Fog , Snow Snow
5:53 PM 30.9 °F 22.8 °F 30.9 °F 100% 30.09 in 0.2 mi NE 9.2 mph - 0.00 in Fog , Snow Snow
6:12 PM 30.2 °F 20.8 °F 30.2 °F 100% 30.02 in 0.5 mi NNE 11.5 mph - N/A Fog , Snow Snow
6:21 PM 30.2 °F 20.8 °F 30.2 °F 100% 30.03 in 0.2 mi NNE 11.5 mph - 0.00 in Fog , Snow Snow
6:28 PM 30.2 °F 21.3 °F 30.2 °F 100% 30.03 in 0.5 mi NNE 10.4 mph - 0.00 in Fog , Snow Snow
6:37 PM 30.2 °F 21.9 °F 30.2 °F 100% 30.04 in 0.2 mi NNE 9.2 mph - 0.00 in Fog , Snow Heavy Snow
6:53 PM 30.9 °F 20.7 °F 30.0 °F 96% 30.12 in 0.2 mi NNE 13.8 mph - 0.01 in Fog , Snow Snow
7:04 PM 30.2 °F 20.2 °F 30.2 °F 100% 30.06 in 0.5 mi NNE 12.7 mph - 0.00 in Fog , Snow Snow
7:44 PM 30.2 °F 20.2 °F 30.2 °F 100% 30.07 in 0.5 mi NNE 12.7 mph - 0.00 in Fog , Snow Snow
7:53 PM 30.9 °F 21.7 °F 30.0 °F 96% 30.15 in 0.5 mi NNE 11.5 mph - 0.00 in Fog , Snow Snow
8:32 PM 30.2 °F 21.9 °F 30.2 °F 100% 30.08 in 1.0 mi NNE 9.2 mph - N/A Snow Light Snow
8:53 PM 30.9 °F 24.3 °F 30.0 °F 96% 30.16 in 1.2 mi NNE 6.9 mph - 0.00 in Snow Light Snow
9:29 PM 30.2 °F 22.6 °F 30.2 °F 100% 30.09 in 2.5 mi North 8.1 mph - 0.00 in Snow Light Snow
9:39 PM 30.2 °F 21.9 °F 30.2 °F 100% 30.08 in 4.0 mi North 9.2 mph - 0.00 in Snow Light Snow
9:53 PM 30.9 °F 23.5 °F 28.9 °F 92% 30.16 in 8.0 mi NNE 8.1 mph - 0.00 in   Overcast
10:53 PM 30.0 °F - 28.9 °F 96% 30.17 in 7.0 mi Calm Calm - N/A   Overcast
11:53 PM 28.9 °F - 28.0 °F 96% 30.17 in 7.0 mi Calm Calm - N/A   Overcast